[[{"header":{"parameterUnit":"m.s-1","parameterCategory":1,"la1":30.2991,"la2":30.254,"lo1":-89.0895,"lo2":-89.0444,"dy":0.0017,"dx":0.0017,"nx":28,"ny":28,"refTime":"2024-07-17T21:00:00:Z","depth":0,"parameterNumber":2,"parameterNumberName":"U-component_of_WINDS"},"data":[0,0,0,0,0,0,0,0,0,0,0,0,0,0,0,0,0,0,0,0,0,0,0,0,0,0,0,0,0,0,0,0,0,0,0,0,0,0,0,0,0,0,0,0,0,0,0,0,0,0,0,0,0,0,0,0,0,0,0.8212,0.8211,0,0.815,0.8149,0.8148,0.8134,0.8135,0.8135,0.8136,0.8075,0.8073,0.8071,0,0,0,0,0,0,0,0,0,0,0,0,0,0.8323,0.8321,0.8212,0.8211,0.8211,0.815,0.8149,0.8148,0.8134,0.8135,0.8135,0.8136,0.8076,0.8074,0.8071,0,0,0,0,0,0,0,0,0,0,0,0,0,0.8269,0.832,0.8212,0.8196,0.8194,0.815,0.8149,0.8148,0.8134,0.8135,0.8136,0.8136,0.8077,0.8074,0.8071,0.8039,0,0,0.8062,0.806,0,0,0,0,0,0,0,0,0.8272,0.8265,0.8199,0.8197,0.8195,0.815,0.8166,0.8111,0.8134,0.8157,0.8136,0.8137,0.81,0.8095,0.8082,0.8036,0.8034,0.8061,0.8059,0.8058,0.8057,0,0,0,0,0,0,0,0.8276,0.8268,0.8188,0.8199,0.8196,0.8193,0.8187,0.8155,0.8126,0.8155,0.8154,0.8147,0.8099,0.8085,0.8081,0.8033,0.8061,0.8059,0.8057,0.8056,0.7958,0.7958,0,0,0,0,0,0,0.8282,0.8271,0.819,0.8186,0.8236,0.8191,0.8183,0.8164,0.8126,0.8121,0.8146,0.8146,0.809,0.8084,0.8078,0.8039,0.8058,0.8055,0.8054,0.7959,0.7958,0.7957,0,0,0,0,0,0,0.8284,0.8275,0.8192,0.8228,0.8217,0.8188,0.8167,0.8163,0.8149,0.8119,0.8114,0.8137,0.809,0.8083,0.8049,0.8037,0.8054,0.8051,0.796,0.7959,0.7958,0.796,0,0,0,0,0,0,0.8288,0.8276,0.8263,0.8228,0.8215,0.8162,0.8166,0.8161,0.8143,0.8143,0.8109,0.8105,0.809,0.8053,0.8046,0.8033,0.8049,0.7961,0.796,0.7958,0.7961,0.7959,0.7958,0,0,0,0,0,0.8292,0.8266,0.8262,0.8252,0.8198,0.8162,0.8155,0.8138,0.8142,0.8129,0.811,0.8106,0.8039,0.805,0.8041,0.8027,0.7962,0.796,0.7958,0.7962,0.796,0.7958,0,0,0,0,0,0,0.8302,0.8261,0.8256,0.8218,0.8194,0.8159,0.8143,0.8136,0.811,0.8111,0.8092,0.8084,0.8052,0.8036,0.8049,0.7995,0.8001,0.7997,0.8006,0.8004,0.8002,0.8007,0.8046,0,0,0,0,0,0.8299,0.8272,0.8239,0.8209,0.8196,0.8172,0.8155,0.8144,0.8118,0.8108,0.8086,0.8062,0.8036,0.8019,0.7993,0.7959,0.7952,0.7945,0.7943,0.7942,0.7939,0.7921,0.7917,0.7952,0.7952,0.7952,0,0,0.8295,0.8269,0.8253,0.821,0.819,0.8163,0.8163,0.8135,0.8115,0.8104,0.807,0.8054,0.8026,0.7992,0.7975,0.7978,0.7928,0.794,0.7939,0.7937,0.7919,0.7915,0.7913,0.7951,0.7951,0.7951,0,0,0.8272,0.825,0.8223,0.8202,0.817,0.8154,0.8147,0.8114,0.8103,0.8068,0.8059,0.8037,0.7991,0.7972,0.7956,0.7927,0.7922,0.7919,0.791,0.7892,0.789,0.7887,0.7877,0.7874,0.7916,0.7916,0.7916,0,0.8271,0.8229,0.821,0.8182,0.8164,0.8151,0.8124,0.8105,0.8067,0.8056,0.8058,0.8001,0.7982,0.7943,0.7936,0.7923,0.7916,0.7923,0.7891,0.7889,0.7886,0.7877,0.7873,0.7916,0.7916,0.7916,0.7916,0,0.8229,0.82,0.8182,0.8145,0.8125,0.8098,0.8075,0.8057,0.8048,0.8032,0.7998,0.7974,0.7943,0.7933,0.7924,0.7893,0.7896,0.7895,0.7901,0.7883,0.7874,0.787,0.7916,0.7916,0.7916,0.7916,0,0,0.8211,0.8163,0.8157,0.814,0.8105,0.8083,0.8056,0.8024,0.801,0.7984,0.7962,0.7924,0.7923,0.7905,0.7894,0.7878,0.7857,0.7879,0.7879,0.7877,0.7823,0.7824,0.782,0.7853,0.7853,0.7852,0.7825,0,0.8185,0.8135,0.8117,0.8076,0.805,0.8037,0.8014,0.799,0.7974,0.7951,0.7934,0.7908,0.7908,0.7898,0.7881,0.7863,0.7846,0.7865,0.7833,0.7833,0.7841,0.7815,0.7816,0.7792,0.7822,0.7821,0.7821,0,0.8148,0.8121,0.8077,0.8045,0.8033,0.8012,0.7982,0.796,0.7933,0.7923,0.7903,0.7893,0.7865,0.7872,0.7834,0.7847,0.7833,0.7822,0.7821,0.7818,0.7826,0.7812,0.7784,0.778,0.7815,0.7815,0.7816,0,0.814,0.8093,0.8061,0.8046,0.8008,0.7994,0.7977,0.7951,0.7933,0.7908,0.7897,0.7869,0.7854,0.7833,0.7816,0.7822,0.778,0.7785,0.7771,0.7772,0.7764,0.7764,0.7733,0.7754,0.7754,0.7754,0.7754,0,0.8113,0.8087,0.8057,0.8037,0.8008,0.7988,0.796,0.7943,0.7919,0.7897,0.7885,0.7865,0.7843,0.782,0.7807,0.7778,0.7771,0.7763,0.776,0.7764,0.7766,0.7756,0.7757,0.7753,0.7753,0.7753,0.7753,0,0.81,0.8078,0.8042,0.8009,0.8,0.798,0.7952,0.7933,0.7916,0.7888,0.788,0.7855,0.7828,0.7808,0.7773,0.7764,0.7733,0.773,0.7742,0.7741,0.7729,0.773,0.7691,0.7685,0.7708,0.7708,0.7708,0,0.8085,0.8064,0.8028,0.8011,0.7995,0.7968,0.795,0.7931,0.7913,0.7881,0.7866,0.7837,0.7813,0.777,0.7749,0.7722,0.7719,0.7707,0.7715,0.772,0.772,0.7721,0.7719,0.7706,0.7706,0.7706,0.7705,0,0.806,0.805,0.8024,0.7994,0.7972,0.7948,0.7924,0.7912,0.7888,0.7868,0.7839,0.7821,0.7784,0.7757,0.7728,0.7712,0.7705,0.7703,0.7699,0.7703,0.7711,0.7707,0.774,0.7704,0.7704,0.7704,0.7704,0.7704,0.8045,0.8026,0.7998,0.797,0.7949,0.7927,0.7907,0.7888,0.7863,0.7832,0.7822,0.7792,0.7766,0.7727,0.7711,0.7688,0.7689,0.7683,0.7681,0.768,0.768,0.7714,0.7683,0.7683,0.7683,0.7683,0.7683,0,0.802,0.8001,0.7975,0.7941,0.7919,0.7913,0.7886,0.7868,0.7842,0.7818,0.7795,0.7762,0.7735,0.7712,0.7684,0.767,0.7667,0.7664,0.7665,0.7662,0.7681,0.7688,0.7667,0.7667,0.7667,0.7667,0.7667,0.7667,0.8004,0.7973,0.796,0.7918,0.79,0.7869,0.7855,0.7835,0.7816,0.7779,0.7756,0.7741,0.7718,0.7688,0.7664,0.7658,0.7649,0.7647,0.764,0.7658,0.766,0.7662,0.7668,0.7645,0.7645,0.7623,0.7623,0.7623]},{"header":{"parameterUnit":"m.s-1","parameterCategory":1,"la1":30.2991,"la2":30.254,"lo1":-89.0895,"lo2":-89.0444,"dy":0.0017,"dx":0.0017,"nx":28,"ny":28,"refTime":"2024-07-17T21:00:00:Z","depth":0,"parameterNumber":3,"parameterNumberName":"V-component_of_WINDS"},"data":[0,0,0,0,0,0,0,0,0,0,0,0,0,0,0,0,0,0,0,0,0,0,0,0,0,0,0,0,0,0,0,0,0,0,0,0,0,0,0,0,0,0,0,0,0,0,0,0,0,0,0,0,0,0,0,0,0,0,0.751,0.7509,0,0.7362,0.736,0.7359,0.7302,0.7303,0.7303,0.7304,0.715,0.7145,0.7141,0,0,0,0,0,0,0,0,0,0,0,0,0,0.7744,0.774,0.7511,0.7509,0.7507,0.7362,0.736,0.7358,0.7302,0.7303,0.7303,0.7304,0.7151,0.7146,0.714,0,0,0,0,0,0,0,0,0,0,0,0,0,0.7624,0.7739,0.7511,0.7462,0.7456,0.7363,0.736,0.7358,0.7302,0.7303,0.7304,0.7304,0.7153,0.7146,0.714,0.7084,0,0,0.7119,0.7116,0,0,0,0,0,0,0,0,0.7631,0.7615,0.7471,0.7465,0.7458,0.7351,0.7386,0.7266,0.7302,0.736,0.7304,0.7305,0.7216,0.7204,0.7175,0.7077,0.707,0.7118,0.7114,0.7111,0.7109,0,0,0,0,0,0,0,0.7639,0.7621,0.7452,0.7469,0.7461,0.7446,0.743,0.7363,0.7286,0.7355,0.7351,0.7334,0.7213,0.7181,0.7171,0.7068,0.7118,0.7112,0.7108,0.7106,0.6917,0.6917,0,0,0,0,0,0,0.7656,0.7629,0.7456,0.7447,0.7548,0.7442,0.7423,0.7385,0.7287,0.7272,0.7334,0.7332,0.7193,0.7179,0.7165,0.7093,0.7111,0.7105,0.7101,0.6918,0.6917,0.6916,0,0,0,0,0,0,0.7661,0.7641,0.7462,0.7537,0.7513,0.7437,0.7394,0.7382,0.735,0.7271,0.7256,0.7316,0.7193,0.7175,0.7105,0.7087,0.7102,0.7096,0.6919,0.6918,0.6917,0.695,0,0,0,0,0,0,0.7668,0.7643,0.7622,0.7537,0.7509,0.7405,0.7393,0.7378,0.7339,0.7335,0.725,0.7236,0.7192,0.7115,0.7098,0.7078,0.709,0.6921,0.6919,0.6917,0.695,0.695,0.695,0,0,0,0,0,0.7677,0.7636,0.7621,0.76,0.7481,0.7404,0.7388,0.7338,0.7338,0.7315,0.7264,0.7239,0.7093,0.7109,0.7089,0.7067,0.6921,0.6919,0.6917,0.695,0.695,0.695,0,0,0,0,0,0,0.772,0.7624,0.7606,0.7537,0.7479,0.7395,0.7364,0.734,0.728,0.7279,0.7219,0.72,0.7135,0.7094,0.7114,0.7008,0.7005,0.6999,0.7037,0.7036,0.7036,0.7047,0.7085,0,0,0,0,0,0.7722,0.7668,0.7587,0.7534,0.7506,0.7441,0.7406,0.7372,0.731,0.7285,0.7228,0.7168,0.7108,0.707,0.7011,0.6945,0.6925,0.692,0.692,0.692,0.6915,0.6877,0.6874,0.6909,0.6909,0.6909,0,0,0.7724,0.7665,0.7635,0.7542,0.7493,0.7439,0.742,0.7363,0.7322,0.7276,0.7206,0.7164,0.7092,0.7024,0.6991,0.6988,0.6901,0.6917,0.6918,0.6913,0.6875,0.6871,0.6868,0.6908,0.6908,0.6908,0,0,0.7701,0.7651,0.7602,0.7554,0.7481,0.7438,0.7426,0.7346,0.7316,0.7245,0.721,0.716,0.7058,0.7009,0.6971,0.6931,0.6906,0.6913,0.6912,0.6876,0.6873,0.687,0.6856,0.6851,0.6909,0.6909,0.6909,0,0.7713,0.763,0.7579,0.7525,0.7485,0.7441,0.7391,0.7346,0.7258,0.7231,0.7228,0.7101,0.7049,0.6969,0.696,0.6931,0.6915,0.6922,0.6878,0.6874,0.6871,0.6857,0.6851,0.691,0.691,0.691,0.691,0,0.7649,0.7592,0.7561,0.7477,0.7434,0.7381,0.7322,0.7284,0.7255,0.7213,0.7142,0.708,0.7007,0.6986,0.6957,0.6902,0.6902,0.689,0.6885,0.687,0.6855,0.6849,0.6912,0.6912,0.6911,0.6911,0,0,0.7646,0.7537,0.7526,0.7488,0.7405,0.736,0.7306,0.7236,0.7205,0.7146,0.7098,0.7014,0.7003,0.6959,0.6924,0.6893,0.6865,0.6884,0.6881,0.6882,0.6801,0.6811,0.6805,0.6849,0.6848,0.6847,0.6807,0,0.7612,0.7514,0.7467,0.7389,0.7336,0.7295,0.7248,0.7192,0.7151,0.71,0.7054,0.6996,0.6985,0.6959,0.6926,0.6876,0.6848,0.6878,0.6804,0.6802,0.6822,0.6797,0.6806,0.6772,0.6801,0.68,0.6799,0,0.7557,0.75,0.7417,0.7341,0.7317,0.7276,0.7208,0.716,0.7096,0.7068,0.7021,0.6988,0.6929,0.6931,0.6849,0.6871,0.6838,0.6809,0.6806,0.6796,0.6799,0.6786,0.676,0.6755,0.679,0.6791,0.6791,0,0.7564,0.7465,0.7403,0.7372,0.7282,0.7254,0.7215,0.7152,0.7113,0.7054,0.7029,0.6964,0.6928,0.6878,0.6828,0.6834,0.6752,0.6749,0.6727,0.6728,0.671,0.6712,0.6677,0.6691,0.6691,0.6691,0.6691,0,0.7529,0.748,0.7405,0.7367,0.731,0.7258,0.7204,0.7162,0.7106,0.7059,0.702,0.6976,0.6913,0.6861,0.6822,0.676,0.6745,0.672,0.671,0.6723,0.6726,0.67,0.6701,0.6689,0.669,0.669,0.669,0,0.7526,0.7474,0.7403,0.7325,0.7304,0.7266,0.7199,0.716,0.7118,0.7059,0.7042,0.6976,0.6913,0.6859,0.6776,0.6749,0.6686,0.6674,0.6708,0.6702,0.6683,0.6686,0.663,0.662,0.6641,0.6641,0.6641,0,0.7507,0.7468,0.7387,0.7353,0.7315,0.726,0.7221,0.7168,0.7129,0.7054,0.7024,0.6959,0.6904,0.6806,0.675,0.6687,0.6673,0.6658,0.6663,0.6677,0.6672,0.6675,0.667,0.6657,0.6657,0.6657,0.6657,0,0.7478,0.7455,0.74,0.7337,0.7292,0.7239,0.7185,0.7159,0.7096,0.7054,0.699,0.6948,0.6864,0.68,0.6731,0.669,0.6663,0.6657,0.6648,0.666,0.6682,0.667,0.6707,0.6658,0.6658,0.6658,0.6658,0.6658,0.7466,0.743,0.7367,0.7308,0.7262,0.7213,0.7173,0.7127,0.7073,0.7001,0.6973,0.6908,0.6846,0.6751,0.671,0.6659,0.6654,0.6642,0.6639,0.6636,0.6638,0.6691,0.6646,0.6646,0.6646,0.6646,0.6646,0,0.7435,0.7393,0.7339,0.7266,0.7219,0.72,0.7139,0.7102,0.7045,0.699,0.6937,0.6864,0.6802,0.6742,0.6677,0.6647,0.6633,0.6632,0.6633,0.6624,0.6646,0.666,0.6644,0.6644,0.6644,0.6644,0.6644,0.6644,0.7413,0.7352,0.7321,0.7237,0.7195,0.7131,0.7099,0.7053,0.7009,0.693,0.6878,0.684,0.6783,0.6714,0.6656,0.664,0.6618,0.662,0.66,0.6622,0.6622,0.6623,0.6636,0.6615,0.6615,0.6582,0.6582,0.6582]}]]